contact:dominique.lefevre@mio.osupytheas.fr, maurice.libes@osupytheas.fr, didier.mallarino@osupytheas.fr
Project:EMSO http://www.emso-fr.org/EMSO-France
Depth: 2436.0 m
Title:EMSO Ligure Ouest : Data MII capteur MICROCAT
DateTime_Computer,Latitude,Longitude,Temperature,Conductivity,Pressure,DateTime_Instrument
DateTime_Computer,Latitude,Longitude,degC,S m-1,dbar,DateTime_Instrument
2022-03-13T00:00:58Z,42.805,6.029,13.3007,4.60037,2470.53,2022-3-13T02:02:33Z
2022-03-13T00:04:01Z,42.805,6.029,13.3005,4.60044,2470.567,2022-3-13T02:05:37Z
2022-03-13T00:07:04Z,42.805,6.029,13.3008,4.60040,2470.553,2022-3-13T02:08:40Z
2022-03-13T00:10:07Z,42.805,6.029,13.3001,4.60039,2470.591,2022-3-13T02:11:43Z
2022-03-13T00:13:10Z,42.805,6.029,13.3001,4.60041,2470.577,2022-3-13T02:14:46Z
2022-03-13T00:16:13Z,42.805,6.029,13.3006,4.60037,2470.507,2022-3-13T02:17:49Z
2022-03-13T00:19:17Z,42.805,6.029,13.3005,4.60039,2470.553,2022-3-13T02:20:52Z
2022-03-13T00:22:20Z,42.805,6.029,13.3004,4.60039,2470.553,2022-3-13T02:23:55Z
2022-03-13T00:25:23Z,42.805,6.029,13.3008,4.60038,2470.567,2022-3-13T02:26:58Z
2022-03-13T00:28:26Z,42.805,6.029,13.3004,4.60039,2470.553,2022-3-13T02:30:02Z
2022-03-13T00:31:29Z,42.805,6.029,13.3006,4.60037,2470.553,2022-3-13T02:33:05Z
2022-03-13T00:34:32Z,42.805,6.029,13.3006,4.60038,2470.539,2022-3-13T02:36:08Z
2022-03-13T00:37:35Z,42.805,6.029,13.3008,4.60039,2470.553,2022-3-13T02:39:11Z
2022-03-13T00:40:38Z,42.805,6.029,13.3008,4.60039,2470.553,2022-3-13T02:42:14Z
2022-03-13T00:43:42Z,42.805,6.029,13.3004,4.60040,2470.553,2022-3-13T02:45:17Z
2022-03-13T00:46:45Z,42.805,6.029,13.3004,4.60040,2470.553,2022-3-13T02:48:20Z
2022-03-13T00:49:48Z,42.805,6.029,13.3007,4.60042,2470.567,2022-3-13T02:51:23Z
2022-03-13T00:52:51Z,42.805,6.029,13.3005,4.60039,2470.553,2022-3-13T02:54:27Z
2022-03-13T00:55:54Z,42.805,6.029,13.3006,4.60039,2470.577,2022-3-13T02:57:30Z
2022-03-13T00:58:57Z,42.805,6.029,13.3005,4.60042,2470.577,2022-3-13T03:00:33Z
2022-03-13T01:02:00Z,42.805,6.029,13.2999,4.60040,2470.614,2022-3-13T03:03:36Z
2022-03-13T01:05:03Z,42.805,6.029,13.3005,4.60039,2470.567,2022-3-13T03:06:39Z
2022-03-13T01:08:07Z,42.805,6.029,13.3004,4.60039,2470.577,2022-3-13T03:09:42Z
2022-03-13T01:11:10Z,42.805,6.029,13.3006,4.60039,2470.6,2022-3-13T03:12:45Z
2022-03-13T01:14:13Z,42.805,6.029,13.3004,4.60041,2470.553,2022-3-13T03:15:48Z
2022-03-13T01:17:16Z,42.805,6.029,13.3007,4.60038,2470.577,2022-3-13T03:18:52Z
2022-03-13T01:20:19Z,42.805,6.029,13.3006,4.60037,2470.614,2022-3-13T03:21:55Z
2022-03-13T01:23:22Z,42.805,6.029,13.3008,4.60039,2470.591,2022-3-13T03:24:58Z
2022-03-13T01:26:25Z,42.805,6.029,13.3004,4.60039,2470.6,2022-3-13T03:28:01Z
2022-03-13T01:29:28Z,42.805,6.029,13.3006,4.60039,2470.6,2022-3-13T03:31:04Z
2022-03-13T01:32:32Z,42.805,6.029,13.3003,4.60038,2470.577,2022-3-13T03:34:07Z
2022-03-13T01:35:35Z,42.805,6.029,13.3003,4.60038,2470.591,2022-3-13T03:37:10Z
2022-03-13T01:38:38Z,42.805,6.029,13.3003,4.60039,2470.553,2022-3-13T03:40:13Z
2022-03-13T01:41:41Z,42.805,6.029,13.3005,4.60040,2470.6,2022-3-13T03:43:17Z
2022-03-13T01:44:44Z,42.805,6.029,13.3007,4.60038,2470.624,2022-3-13T03:46:20Z
2022-03-13T01:47:47Z,42.805,6.029,13.3005,4.60039,2470.614,2022-3-13T03:49:23Z
2022-03-13T01:50:50Z,42.805,6.029,13.3007,4.60039,2470.6,2022-3-13T03:52:26Z
2022-03-13T01:53:53Z,42.805,6.029,13.3007,4.60040,2470.577,2022-3-13T03:55:29Z
2022-03-13T01:56:56Z,42.805,6.029,13.3004,4.60041,2470.614,2022-3-13T03:58:32Z
2022-03-13T02:00:00Z,42.805,6.029,13.3006,4.60042,2470.6,2022-3-13T04:01:35Z
2022-03-13T02:03:03Z,42.805,6.029,13.3006,4.60040,2470.6,2022-3-13T04:04:38Z
2022-03-13T02:06:06Z,42.805,6.029,13.3008,4.60040,2470.6,2022-3-13T04:07:42Z
2022-03-13T02:09:09Z,42.805,6.029,13.3007,4.60039,2470.6,2022-3-13T04:10:45Z
2022-03-13T02:12:12Z,42.805,6.029,13.3005,4.60039,2470.637,2022-3-13T04:13:48Z
2022-03-13T02:15:15Z,42.805,6.029,13.3005,4.60037,2470.637,2022-3-13T04:16:51Z
2022-03-13T02:18:18Z,42.805,6.029,13.3004,4.60039,2470.646,2022-3-13T04:19:54Z
2022-03-13T02:21:21Z,42.805,6.029,13.3006,4.60039,2470.637,2022-3-13T04:22:57Z
2022-03-13T02:24:25Z,42.805,6.029,13.3007,4.60037,2470.6,2022-3-13T04:26:00Z
2022-03-13T02:27:28Z,42.805,6.029,13.3008,4.60037,2470.637,2022-3-13T04:29:03Z
2022-03-13T02:30:31Z,42.805,6.029,13.3005,4.60039,2470.6,2022-3-13T04:32:07Z
2022-03-13T02:33:34Z,42.805,6.029,13.3004,4.60040,2470.6,2022-3-13T04:35:10Z
2022-03-13T02:36:37Z,42.805,6.029,13.3007,4.60036,2470.624,2022-3-13T04:38:13Z
2022-03-13T02:39:40Z,42.805,6.029,13.3004,4.60038,2470.646,2022-3-13T04:41:16Z
2022-03-13T02:42:43Z,42.805,6.029,13.3006,4.60038,2470.637,2022-3-13T04:44:19Z
2022-03-13T02:45:46Z,42.805,6.029,13.3006,4.60038,2470.614,2022-3-13T04:47:22Z
2022-03-13T02:48:50Z,42.805,6.029,13.3005,4.60038,2470.661,2022-3-13T04:50:25Z
2022-03-13T02:51:53Z,42.805,6.029,13.3006,4.60039,2470.624,2022-3-13T04:53:28Z
2022-03-13T02:54:56Z,42.805,6.029,13.3006,4.60038,2470.624,2022-3-13T04:56:31Z
2022-03-13T02:57:59Z,42.805,6.029,13.3005,4.60039,2470.624,2022-3-13T04:59:35Z
2022-03-13T03:01:02Z,42.805,6.029,13.3002,4.60039,2470.6,2022-3-13T05:02:38Z
2022-03-13T03:04:05Z,42.805,6.029,13.3007,4.60039,2470.6,2022-3-13T05:05:41Z
2022-03-13T03:07:08Z,42.805,6.029,13.3009,4.60038,2470.637,2022-3-13T05:08:44Z
2022-03-13T03:10:11Z,42.805,6.029,13.3006,4.60039,2470.646,2022-3-13T05:11:47Z
2022-03-13T03:13:15Z,42.805,6.029,13.3003,4.60038,2470.661,2022-3-13T05:14:50Z
2022-03-13T03:16:18Z,42.805,6.029,13.3004,4.60039,2470.624,2022-3-13T05:17:53Z
2022-03-13T03:19:21Z,42.805,6.029,13.3006,4.60036,2470.646,2022-3-13T05:20:56Z
2022-03-13T03:22:24Z,42.805,6.029,13.3008,4.60036,2470.661,2022-3-13T05:24:00Z
2022-03-13T03:25:27Z,42.805,6.029,13.3004,4.60039,2470.6,2022-3-13T05:27:03Z
2022-03-13T03:28:30Z,42.805,6.029,13.3006,4.60037,2470.624,2022-3-13T05:30:06Z
2022-03-13T03:31:33Z,42.805,6.029,13.3005,4.60039,2470.637,2022-3-13T05:33:09Z
2022-03-13T03:34:36Z,42.805,6.029,13.3002,4.60039,2470.646,2022-3-13T05:36:12Z
2022-03-13T03:37:40Z,42.805,6.029,13.3006,4.60036,2470.646,2022-3-13T05:39:15Z
2022-03-13T03:40:43Z,42.805,6.029,13.3011,4.60036,2470.614,2022-3-13T05:42:18Z
2022-03-13T03:43:46Z,42.805,6.029,13.3008,4.60039,2470.661,2022-3-13T05:45:21Z
2022-03-13T03:46:49Z,42.805,6.029,13.3006,4.60037,2470.661,2022-3-13T05:48:25Z
2022-03-13T03:49:52Z,42.805,6.029,13.3006,4.60039,2470.684,2022-3-13T05:51:28Z
2022-03-13T03:52:55Z,42.805,6.029,13.3003,4.60038,2470.624,2022-3-13T05:54:31Z
2022-03-13T03:55:58Z,42.805,6.029,13.3002,4.60036,2470.614,2022-3-13T05:57:34Z
2022-03-13T03:59:01Z,42.805,6.029,13.3006,4.60038,2470.637,2022-3-13T06:00:37Z
2022-03-13T04:02:05Z,42.805,6.029,13.3005,4.60037,2470.661,2022-3-13T06:03:40Z
2022-03-13T04:05:08Z,42.805,6.029,13.3004,4.60037,2470.624,2022-3-13T06:06:43Z
2022-03-13T04:08:11Z,42.805,6.029,13.3004,4.60039,2470.637,2022-3-13T06:09:46Z
2022-03-13T04:11:14Z,42.805,6.029,13.3003,4.60037,2470.684,2022-3-13T06:12:50Z
2022-03-13T04:14:17Z,42.805,6.029,13.3001,4.60037,2470.624,2022-3-13T06:15:53Z
2022-03-13T04:17:20Z,42.805,6.029,13.3004,4.60036,2470.646,2022-3-13T06:18:56Z
2022-03-13T04:20:23Z,42.805,6.029,13.3007,4.60036,2470.67,2022-3-13T06:21:59Z
2022-03-13T04:23:26Z,42.805,6.029,13.3003,4.60037,2470.646,2022-3-13T06:25:02Z
2022-03-13T04:26:29Z,42.805,6.029,13.3007,4.60036,2470.624,2022-3-13T06:28:05Z
2022-03-13T04:29:33Z,42.805,6.029,13.3005,4.60036,2470.646,2022-3-13T06:31:08Z
2022-03-13T04:32:36Z,42.805,6.029,13.3006,4.60039,2470.661,2022-3-13T06:34:11Z
2022-03-13T04:35:39Z,42.805,6.029,13.3009,4.60036,2470.684,2022-3-13T06:37:15Z
2022-03-13T04:38:42Z,42.805,6.029,13.3004,4.60036,2470.661,2022-3-13T06:40:18Z
2022-03-13T04:41:45Z,42.805,6.029,13.3009,4.60038,2470.67,2022-3-13T06:43:21Z
2022-03-13T04:44:48Z,42.805,6.029,13.3009,4.60036,2470.661,2022-3-13T06:46:24Z
2022-03-13T04:47:51Z,42.805,6.029,13.3005,4.60037,2470.646,2022-3-13T06:49:27Z
2022-03-13T04:50:54Z,42.805,6.029,13.3002,4.60035,2470.646,2022-3-13T06:52:30Z
2022-03-13T04:53:58Z,42.805,6.029,13.2999,4.60035,2470.684,2022-3-13T06:55:33Z
2022-03-13T04:57:01Z,42.805,6.029,13.3004,4.60037,2470.624,2022-3-13T06:58:36Z
2022-03-13T05:00:04Z,42.805,6.029,13.3004,4.60036,2470.67,2022-3-13T07:01:40Z
2022-03-13T05:03:07Z,42.805,6.029,13.3001,4.60037,2470.646,2022-3-13T07:04:43Z
2022-03-13T05:06:10Z,42.805,6.029,13.3004,4.60035,2470.67,2022-3-13T07:07:46Z
2022-03-13T05:09:13Z,42.805,6.029,13.3005,4.60036,2470.661,2022-3-13T07:10:49Z
2022-03-13T05:12:16Z,42.805,6.029,13.3006,4.60036,2470.646,2022-3-13T07:13:52Z
2022-03-13T05:15:19Z,42.805,6.029,13.3005,4.60040,2470.633,2022-3-13T07:16:55Z
2022-03-13T05:18:23Z,42.805,6.029,13.3002,4.60036,2470.637,2022-3-13T07:19:58Z
2022-03-13T05:21:26Z,42.805,6.029,13.3006,4.60035,2470.661,2022-3-13T07:23:01Z
2022-03-13T05:24:29Z,42.805,6.029,13.3005,4.60036,2470.661,2022-3-13T07:26:04Z
2022-03-13T05:27:32Z,42.805,6.029,13.3004,4.60036,2470.661,2022-3-13T07:29:08Z
2022-03-13T05:30:35Z,42.805,6.029,13.3006,4.60036,2470.67,2022-3-13T07:32:11Z
2022-03-13T05:33:38Z,42.805,6.029,13.3005,4.60035,2470.646,2022-3-13T07:35:14Z
2022-03-13T05:36:41Z,42.805,6.029,13.3004,4.60037,2470.661,2022-3-13T07:38:17Z
2022-03-13T05:39:44Z,42.805,6.029,13.3003,4.60036,2470.67,2022-3-13T07:41:20Z
2022-03-13T05:42:48Z,42.805,6.029,13.3004,4.60037,2470.684,2022-3-13T07:44:23Z
2022-03-13T05:45:51Z,42.805,6.029,13.3005,4.60038,2470.661,2022-3-13T07:47:26Z
2022-03-13T05:48:54Z,42.805,6.029,13.3008,4.60039,2470.646,2022-3-13T07:50:29Z
2022-03-13T05:51:57Z,42.805,6.029,13.3004,4.60038,2470.67,2022-3-13T07:53:33Z
2022-03-13T05:55:00Z,42.805,6.029,13.3005,4.60042,2470.646,2022-3-13T07:56:36Z
2022-03-13T05:58:03Z,42.805,6.029,13.3004,4.60036,2470.684,2022-3-13T07:59:39Z
2022-03-13T06:01:06Z,42.805,6.029,13.3006,4.60037,2470.67,2022-3-13T08:02:42Z
2022-03-13T06:04:09Z,42.805,6.029,13.3004,4.60036,2470.646,2022-3-13T08:05:45Z
2022-03-13T06:07:12Z,42.805,6.029,13.3002,4.60037,2470.637,2022-3-13T08:08:48Z
2022-03-13T06:10:16Z,42.805,6.029,13.3005,4.60037,2470.67,2022-3-13T08:11:51Z
2022-03-13T06:13:19Z,42.805,6.029,13.3004,4.60036,2470.624,2022-3-13T08:14:54Z
2022-03-13T06:16:22Z,42.805,6.029,13.3008,4.60037,2470.624,2022-3-13T08:17:58Z
2022-03-13T06:19:25Z,42.805,6.029,13.3002,4.60037,2470.61,2022-3-13T08:21:01Z
2022-03-13T06:22:28Z,42.805,6.029,13.3006,4.60039,2470.661,2022-3-13T08:24:04Z
2022-03-13T06:25:31Z,42.805,6.029,13.3007,4.60037,2470.6,2022-3-13T08:27:07Z
2022-03-13T06:28:34Z,42.805,6.029,13.3002,4.60038,2470.624,2022-3-13T08:30:10Z
2022-03-13T06:31:37Z,42.805,6.029,13.3006,4.60040,2470.646,2022-3-13T08:33:13Z
2022-03-13T06:34:41Z,42.805,6.029,13.3007,4.60038,2470.661,2022-3-13T08:36:16Z
2022-03-13T06:37:44Z,42.805,6.029,13.3007,4.60039,2470.661,2022-3-13T08:39:19Z
2022-03-13T06:40:47Z,42.805,6.029,13.3004,4.60037,2470.646,2022-3-13T08:42:23Z
2022-03-13T06:43:50Z,42.805,6.029,13.3006,4.60039,2470.684,2022-3-13T08:45:26Z
2022-03-13T06:46:53Z,42.805,6.029,13.3004,4.60038,2470.646,2022-3-13T08:48:29Z
2022-03-13T06:49:56Z,42.805,6.029,13.3002,4.60039,2470.684,2022-3-13T08:51:32Z
2022-03-13T06:52:59Z,42.805,6.029,13.3007,4.60036,2470.646,2022-3-13T08:54:35Z
2022-03-13T06:56:02Z,42.805,6.029,13.3006,4.60039,2470.637,2022-3-13T08:57:38Z
2022-03-13T06:59:06Z,42.805,6.029,13.3006,4.60037,2470.624,2022-3-13T09:00:41Z
2022-03-13T07:02:09Z,42.805,6.029,13.3006,4.60039,2470.646,2022-3-13T09:03:44Z
2022-03-13T07:05:12Z,42.805,6.029,13.3006,4.60038,2470.614,2022-3-13T09:06:48Z
2022-03-13T07:08:15Z,42.805,6.029,13.3008,4.60039,2470.6,2022-3-13T09:09:51Z
2022-03-13T07:11:18Z,42.805,6.029,13.3009,4.60040,2470.646,2022-3-13T09:12:54Z
2022-03-13T07:14:21Z,42.805,6.029,13.3004,4.60042,2470.646,2022-3-13T09:15:57Z
2022-03-13T07:17:24Z,42.805,6.029,13.3010,4.60038,2470.6,2022-3-13T09:19:00Z
2022-03-13T07:20:27Z,42.805,6.029,13.3006,4.60038,2470.661,2022-3-13T09:22:03Z
2022-03-13T07:23:31Z,42.805,6.029,13.3004,4.60039,2470.624,2022-3-13T09:25:06Z
2022-03-13T07:26:34Z,42.805,6.029,13.3004,4.60041,2470.6,2022-3-13T09:28:09Z
2022-03-13T07:29:37Z,42.805,6.029,13.3009,4.60039,2470.646,2022-3-13T09:31:12Z
2022-03-13T07:32:40Z,42.805,6.029,13.3004,4.60039,2470.624,2022-3-13T09:34:16Z
2022-03-13T07:35:43Z,42.805,6.029,13.3005,4.60039,2470.637,2022-3-13T09:37:19Z
2022-03-13T07:38:46Z,42.805,6.029,13.3006,4.60039,2470.637,2022-3-13T09:40:22Z
2022-03-13T07:41:49Z,42.805,6.029,13.3008,4.60040,2470.577,2022-3-13T09:43:25Z
2022-03-13T07:44:52Z,42.805,6.029,13.3000,4.60038,2470.661,2022-3-13T09:46:28Z
2022-03-13T07:47:56Z,42.805,6.029,13.3006,4.60041,2470.614,2022-3-13T09:49:31Z
2022-03-13T07:50:59Z,42.805,6.029,13.3002,4.60038,2470.6,2022-3-13T09:52:34Z
2022-03-13T07:54:02Z,42.805,6.029,13.3001,4.60038,2470.637,2022-3-13T09:55:37Z
2022-03-13T07:57:05Z,42.805,6.029,13.3007,4.60038,2470.624,2022-3-13T09:58:41Z
2022-03-13T08:00:08Z,42.805,6.029,13.3004,4.60040,2470.637,2022-3-13T10:01:44Z
2022-03-13T08:03:11Z,42.805,6.029,13.3008,4.60039,2470.646,2022-3-13T10:04:47Z
2022-03-13T08:06:14Z,42.805,6.029,13.3006,4.60039,2470.624,2022-3-13T10:07:50Z
2022-03-13T08:09:17Z,42.805,6.029,13.3009,4.60039,2470.6,2022-3-13T10:10:53Z
2022-03-13T08:12:21Z,42.805,6.029,13.3003,4.60039,2470.614,2022-3-13T10:13:56Z
2022-03-13T08:15:24Z,42.805,6.029,13.3007,4.60037,2470.614,2022-3-13T10:16:59Z
2022-03-13T08:18:27Z,42.805,6.029,13.3004,4.60037,2470.614,2022-3-13T10:20:02Z
2022-03-13T08:21:30Z,42.805,6.029,13.3005,4.60038,2470.577,2022-3-13T10:23:06Z
2022-03-13T08:24:33Z,42.805,6.029,13.3004,4.60039,2470.637,2022-3-13T10:26:09Z
2022-03-13T08:27:36Z,42.805,6.029,13.3006,4.60037,2470.6,2022-3-13T10:29:12Z
2022-03-13T08:30:39Z,42.805,6.029,13.3009,4.60039,2470.6,2022-3-13T10:32:15Z
2022-03-13T08:33:42Z,42.805,6.029,13.3004,4.60039,2470.6,2022-3-13T10:35:18Z
2022-03-13T08:36:46Z,42.805,6.029,13.3007,4.60037,2470.6,2022-3-13T10:38:21Z
2022-03-13T08:39:49Z,42.805,6.029,13.3006,4.60039,2470.591,2022-3-13T10:41:24Z
2022-03-13T08:42:52Z,42.805,6.029,13.3006,4.60038,2470.614,2022-3-13T10:44:28Z
2022-03-13T08:45:55Z,42.805,6.029,13.3007,4.60039,2470.6,2022-3-13T10:47:31Z
2022-03-13T08:48:58Z,42.805,6.029,13.3007,4.60039,2470.577,2022-3-13T10:50:34Z
2022-03-13T08:52:01Z,42.805,6.029,13.3006,4.60038,2470.624,2022-3-13T10:53:37Z
2022-03-13T08:55:04Z,42.805,6.029,13.3006,4.60039,2470.614,2022-3-13T10:56:40Z
2022-03-13T08:58:07Z,42.805,6.029,13.3005,4.60039,2470.591,2022-3-13T10:59:43Z
2022-03-13T09:01:11Z,42.805,6.029,13.3007,4.60036,2470.591,2022-3-13T11:02:46Z
2022-03-13T09:04:14Z,42.805,6.029,13.3006,4.60039,2470.577,2022-3-13T11:05:49Z
2022-03-13T09:07:17Z,42.805,6.029,13.3009,4.60039,2470.614,2022-3-13T11:08:53Z
2022-03-13T09:10:20Z,42.805,6.029,13.3004,4.60038,2470.624,2022-3-13T11:11:56Z
2022-03-13T09:13:23Z,42.805,6.029,13.3009,4.60039,2470.553,2022-3-13T11:14:59Z
2022-03-13T09:16:26Z,42.805,6.029,13.3005,4.60039,2470.577,2022-3-13T11:18:02Z
2022-03-13T09:19:29Z,42.805,6.029,13.3006,4.60039,2470.577,2022-3-13T11:21:05Z
2022-03-13T09:22:32Z,42.805,6.029,13.3004,4.60039,2470.591,2022-3-13T11:24:08Z
2022-03-13T09:25:36Z,42.805,6.029,13.3005,4.60042,2470.577,2022-3-13T11:27:11Z
2022-03-13T09:28:39Z,42.805,6.029,13.3007,4.60037,2470.553,2022-3-13T11:30:14Z
2022-03-13T09:31:42Z,42.805,6.029,13.3004,4.60037,2470.577,2022-3-13T11:33:18Z
2022-03-13T09:34:45Z,42.805,6.029,13.3006,4.60036,2470.577,2022-3-13T11:36:21Z
2022-03-13T09:37:48Z,42.805,6.029,13.3005,4.60039,2470.591,2022-3-13T11:39:24Z
2022-03-13T09:40:51Z,42.805,6.029,13.3006,4.60038,2470.6,2022-3-13T11:42:27Z
2022-03-13T09:43:54Z,42.805,6.029,13.3009,4.60038,2470.567,2022-3-13T11:45:30Z
2022-03-13T09:46:57Z,42.805,6.029,13.3006,4.60038,2470.567,2022-3-13T11:48:33Z
2022-03-13T09:50:01Z,42.805,6.029,13.3008,4.60039,2470.591,2022-3-13T11:51:36Z
2022-03-13T09:53:04Z,42.805,6.029,13.3003,4.60039,2470.577,2022-3-13T11:54:39Z
2022-03-13T09:56:07Z,42.805,6.029,13.3005,4.60038,2470.6,2022-3-13T11:57:43Z
2022-03-13T09:59:10Z,42.805,6.029,13.3004,4.60038,2470.577,2022-3-13T12:00:46Z
2022-03-13T10:02:13Z,42.805,6.029,13.3006,4.60039,2470.53,2022-3-13T12:03:49Z
2022-03-13T10:05:16Z,42.805,6.029,13.3005,4.60036,2470.553,2022-3-13T12:06:52Z
2022-03-13T10:08:19Z,42.805,6.029,13.3005,4.60037,2470.577,2022-3-13T12:09:55Z
2022-03-13T10:11:23Z,42.805,6.029,13.3009,4.60037,2470.567,2022-3-13T12:12:58Z
2022-03-13T10:14:26Z,42.805,6.029,13.3004,4.60038,2470.586,2022-3-13T12:16:01Z
2022-03-13T10:17:29Z,42.805,6.029,13.3005,4.60038,2470.53,2022-3-13T12:19:04Z
2022-03-13T10:20:32Z,42.805,6.029,13.3006,4.60038,2470.53,2022-3-13T12:22:08Z
2022-03-13T10:23:35Z,42.805,6.029,13.3005,4.60040,2470.577,2022-3-13T12:25:11Z
2022-03-13T10:26:38Z,42.805,6.029,13.3004,4.60039,2470.591,2022-3-13T12:28:14Z
2022-03-13T10:29:41Z,42.805,6.029,13.3006,4.60042,2470.507,2022-3-13T12:31:17Z
2022-03-13T10:32:44Z,42.805,6.029,13.3006,4.60038,2470.544,2022-3-13T12:34:20Z
2022-03-13T10:35:48Z,42.805,6.029,13.3002,4.60039,2470.53,2022-3-13T12:37:23Z
2022-03-13T10:38:51Z,42.805,6.029,13.3006,4.60037,2470.567,2022-3-13T12:40:26Z
2022-03-13T10:41:54Z,42.805,6.029,13.3004,4.60037,2470.52,2022-3-13T12:43:30Z
2022-03-13T10:44:57Z,42.805,6.029,13.3007,4.60038,2470.53,2022-3-13T12:46:33Z
2022-03-13T10:48:00Z,42.805,6.029,13.3005,4.60040,2470.544,2022-3-13T12:49:36Z
2022-03-13T10:51:03Z,42.805,6.029,13.3008,4.60037,2470.567,2022-3-13T12:52:39Z
2022-03-13T10:54:06Z,42.805,6.029,13.3006,4.60038,2470.553,2022-3-13T12:55:42Z
2022-03-13T10:57:09Z,42.805,6.029,13.3008,4.60040,2470.544,2022-3-13T12:58:45Z
2022-03-13T11:00:13Z,42.805,6.029,13.3004,4.60038,2470.567,2022-3-13T13:01:48Z
2022-03-13T11:03:16Z,42.805,6.029,13.3005,4.60037,2470.544,2022-3-13T13:04:51Z
2022-03-13T11:06:19Z,42.805,6.029,13.3006,4.60039,2470.53,2022-3-13T13:07:55Z
2022-03-13T11:09:22Z,42.805,6.029,13.3006,4.60039,2470.52,2022-3-13T13:10:58Z
2022-03-13T11:12:25Z,42.805,6.029,13.3008,4.60038,2470.553,2022-3-13T13:14:01Z
2022-03-13T11:15:28Z,42.805,6.029,13.3006,4.60039,2470.53,2022-3-13T13:17:04Z
2022-03-13T11:18:31Z,42.805,6.029,13.3004,4.60039,2470.53,2022-3-13T13:20:07Z
2022-03-13T11:21:34Z,42.805,6.029,13.3006,4.60036,2470.553,2022-3-13T13:23:10Z
2022-03-13T11:24:38Z,42.805,6.029,13.3004,4.60038,2470.553,2022-3-13T13:26:13Z
2022-03-13T11:27:41Z,42.805,6.029,13.3002,4.60038,2470.53,2022-3-13T13:29:16Z
2022-03-13T11:30:44Z,42.805,6.029,13.3004,4.60038,2470.53,2022-3-13T13:32:20Z
2022-03-13T11:33:47Z,42.805,6.029,13.3006,4.60037,2470.507,2022-3-13T13:35:23Z
2022-03-13T11:36:50Z,42.805,6.029,13.3009,4.60039,2470.553,2022-3-13T13:38:26Z
2022-03-13T11:39:53Z,42.805,6.029,13.3004,4.60037,2470.53,2022-3-13T13:41:29Z
2022-03-13T11:42:56Z,42.805,6.029,13.3005,4.60037,2470.53,2022-3-13T13:44:32Z
2022-03-13T11:46:00Z,42.805,6.029,13.3006,4.60042,2470.544,2022-3-13T13:47:35Z
2022-03-13T11:49:03Z,42.805,6.029,13.3006,4.60037,2470.544,2022-3-13T13:50:38Z
2022-03-13T11:52:06Z,42.805,6.029,13.3004,4.60041,2470.53,2022-3-13T13:53:41Z
2022-03-13T11:55:09Z,42.805,6.029,13.3005,4.60039,2470.507,2022-3-13T13:56:45Z
2022-03-13T11:58:12Z,42.805,6.029,13.3004,4.60039,2470.53,2022-3-13T13:59:48Z
2022-03-13T12:01:15Z,42.805,6.029,13.3006,4.60039,2470.53,2022-3-13T14:02:51Z
2022-03-13T12:04:18Z,42.805,6.029,13.3006,4.60036,2470.553,2022-3-13T14:05:54Z
2022-03-13T12:07:21Z,42.805,6.029,13.3004,4.60039,2470.553,2022-3-13T14:08:57Z
2022-03-13T12:10:25Z,42.805,6.029,13.3006,4.60036,2470.53,2022-3-13T14:12:00Z
2022-03-13T12:13:28Z,42.805,6.029,13.3002,4.60037,2470.507,2022-3-13T14:15:03Z
2022-03-13T12:16:31Z,42.805,6.029,13.3001,4.60038,2470.52,2022-3-13T14:18:06Z
2022-03-13T12:19:34Z,42.805,6.029,13.3006,4.60039,2470.53,2022-3-13T14:21:10Z
2022-03-13T12:22:37Z,42.805,6.029,13.3005,4.60038,2470.544,2022-3-13T14:24:13Z
2022-03-13T12:25:40Z,42.805,6.029,13.3002,4.60036,2470.544,2022-3-13T14:27:16Z
2022-03-13T12:28:43Z,42.805,6.029,13.3009,4.60037,2470.544,2022-3-13T14:30:19Z
2022-03-13T12:31:46Z,42.805,6.029,13.3006,4.60036,2470.53,2022-3-13T14:33:22Z
2022-03-13T12:34:50Z,42.805,6.029,13.3003,4.60037,2470.507,2022-3-13T14:36:25Z
2022-03-13T12:37:53Z,42.805,6.029,13.3005,4.60036,2470.53,2022-3-13T14:39:28Z
2022-03-13T12:40:56Z,42.805,6.029,13.3006,4.60035,2470.567,2022-3-13T14:42:31Z
2022-03-13T12:43:59Z,42.805,6.029,13.3006,4.60036,2470.53,2022-3-13T14:45:35Z
2022-03-13T12:47:02Z,42.805,6.029,13.3009,4.60034,2470.507,2022-3-13T14:48:38Z
2022-03-13T12:50:05Z,42.805,6.029,13.3006,4.60037,2470.53,2022-3-13T14:51:41Z
2022-03-13T12:53:08Z,42.805,6.029,13.3004,4.60035,2470.507,2022-3-13T14:54:44Z
2022-03-13T12:56:11Z,42.805,6.029,13.3006,4.60036,2470.544,2022-3-13T14:57:47Z
2022-03-13T12:59:15Z,42.805,6.029,13.3003,4.60039,2470.507,2022-3-13T15:00:50Z
2022-03-13T13:02:18Z,42.805,6.029,13.3005,4.60039,2470.53,2022-3-13T15:03:53Z
2022-03-13T13:05:21Z,42.805,6.029,13.3004,4.60036,2470.567,2022-3-13T15:06:57Z
2022-03-13T13:08:24Z,42.805,6.029,13.3000,4.60037,2470.507,2022-3-13T15:10:00Z
2022-03-13T13:11:27Z,42.805,6.029,13.3006,4.60035,2470.553,2022-3-13T15:13:03Z
2022-03-13T13:14:30Z,42.805,6.029,13.3007,4.60036,2470.53,2022-3-13T15:16:06Z
2022-03-13T13:17:33Z,42.805,6.029,13.3005,4.60037,2470.53,2022-3-13T15:19:09Z
2022-03-13T13:20:36Z,42.805,6.029,13.3004,4.60035,2470.544,2022-3-13T15:22:12Z
2022-03-13T13:23:40Z,42.805,6.029,13.3005,4.60038,2470.544,2022-3-13T15:25:15Z
2022-03-13T13:26:43Z,42.805,6.029,13.3004,4.60037,2470.553,2022-3-13T15:28:18Z
2022-03-13T13:29:46Z,42.805,6.029,13.2999,4.60036,2470.53,2022-3-13T15:31:22Z
2022-03-13T13:32:49Z,42.805,6.029,13.3006,4.60037,2470.577,2022-3-13T15:34:25Z
2022-03-13T13:35:52Z,42.805,6.029,13.3002,4.60036,2470.553,2022-3-13T15:37:28Z
2022-03-13T13:38:55Z,42.805,6.029,13.3005,4.60036,2470.567,2022-3-13T15:40:31Z
2022-03-13T13:41:58Z,42.805,6.029,13.3006,4.60036,2470.544,2022-3-13T15:43:34Z
2022-03-13T13:45:01Z,42.805,6.029,13.3005,4.60036,2470.567,2022-3-13T15:46:37Z
2022-03-13T13:48:05Z,42.805,6.029,13.3006,4.60036,2470.553,2022-3-13T15:49:40Z
2022-03-13T13:51:08Z,42.805,6.029,13.3004,4.60035,2470.52,2022-3-13T15:52:43Z
2022-03-13T13:54:11Z,42.805,6.029,13.3004,4.60037,2470.553,2022-3-13T15:55:47Z
2022-03-13T13:57:14Z,42.805,6.029,13.3006,4.60035,2470.53,2022-3-13T15:58:50Z
2022-03-13T14:00:17Z,42.805,6.029,13.3003,4.60036,2470.507,2022-3-13T16:01:53Z
2022-03-13T14:03:20Z,42.805,6.029,13.3007,4.60038,2470.553,2022-3-13T16:04:56Z
2022-03-13T14:06:23Z,42.805,6.029,13.3006,4.60037,2470.53,2022-3-13T16:07:59Z
2022-03-13T14:09:27Z,42.805,6.029,13.3002,4.60035,2470.53,2022-3-13T16:11:02Z
2022-03-13T14:12:30Z,42.805,6.029,13.3006,4.60038,2470.507,2022-3-13T16:14:05Z
2022-03-13T14:15:33Z,42.805,6.029,13.3004,4.60035,2470.53,2022-3-13T16:17:08Z
2022-03-13T14:18:36Z,42.805,6.029,13.2999,4.60036,2470.577,2022-3-13T16:20:12Z
2022-03-13T14:21:39Z,42.805,6.029,13.3004,4.60036,2470.567,2022-3-13T16:23:15Z
2022-03-13T14:24:42Z,42.805,6.029,13.3004,4.60039,2470.577,2022-3-13T16:26:18Z
2022-03-13T14:27:45Z,42.805,6.029,13.3003,4.60037,2470.53,2022-3-13T16:29:21Z
2022-03-13T14:30:48Z,42.805,6.029,13.3003,4.60036,2470.553,2022-3-13T16:32:24Z
2022-03-13T14:33:52Z,42.805,6.029,13.3003,4.60036,2470.577,2022-3-13T16:35:27Z
2022-03-13T14:36:55Z,42.805,6.029,13.3004,4.60039,2470.53,2022-3-13T16:38:30Z
2022-03-13T14:39:58Z,42.805,6.029,13.3006,4.60038,2470.577,2022-3-13T16:41:33Z
2022-03-13T14:43:01Z,42.805,6.029,13.3004,4.60035,2470.567,2022-3-13T16:44:37Z
2022-03-13T14:46:04Z,42.805,6.029,13.3002,4.60039,2470.507,2022-3-13T16:47:40Z
2022-03-13T14:49:07Z,42.805,6.029,13.3006,4.60037,2470.553,2022-3-13T16:50:43Z
2022-03-13T14:52:10Z,42.805,6.029,13.3004,4.60036,2470.563,2022-3-13T16:53:46Z
2022-03-13T14:55:13Z,42.805,6.029,13.3001,4.60035,2470.591,2022-3-13T16:56:49Z
2022-03-13T14:58:17Z,42.805,6.029,13.3005,4.60037,2470.567,2022-3-13T16:59:52Z
2022-03-13T15:01:20Z,42.805,6.029,13.3003,4.60037,2470.553,2022-3-13T17:02:55Z
2022-03-13T15:04:23Z,42.805,6.029,13.3001,4.60038,2470.553,2022-3-13T17:05:58Z
2022-03-13T15:07:26Z,42.805,6.029,13.3003,4.60037,2470.577,2022-3-13T17:09:02Z
2022-03-13T15:10:29Z,42.805,6.029,13.3006,4.60036,2470.553,2022-3-13T17:12:05Z
2022-03-13T15:13:32Z,42.805,6.029,13.3002,4.60035,2470.577,2022-3-13T17:15:08Z